This is the latest recevied weather packets stored in our database for station/object KJ5IIV. If no packets are shown the sender has not sent any weather packets the latest 10 day(s).
| Time | Temp. | Humidity | Pressure | Rain* | Wind** | Luminosity | Snow |
|---|---|---|---|---|---|---|---|
| 1777393402 | 26.67° C | 81% | 1014.6 hPa | 0 mm | - | 123 W/m² | - |
| 1777393099 | 26.67° C | 81% | 1014.7 hPa | 0 mm | - | 121 W/m² | - |
| 1777392795 | 26.67° C | 82% | 1014.5 hPa | 0 mm | - | 195 W/m² | - |
| 1777392491 | 26.67° C | 82% | 1014.4 hPa | 0 mm | - | 123 W/m² | - |
| 1777392187 | 26.67° C | 82% | 1014.2 hPa | 0 mm | - | 121 W/m² | - |
| 1777391882 | 26.11° C | 84% | 1014.1 hPa | 0 mm | - | 203 W/m² | - |
| 1777391577 | 25.56° C | 86% | 1013.1 hPa | 0 mm | - | 210 W/m² | - |
| 1777391274 | 25.56° C | 85% | 1013.4 hPa | 0 mm | - | 116 W/m² | - |
| 1777390970 | 25.56° C | 86% | 1013.3 hPa | 0 mm | - | 90 W/m² | - |
| 1777390666 | 25.56° C | 86% | 1013.4 hPa | 0 mm | - | 102 W/m² | - |
| 1777390364 | 25.56° C | 86% | 1013.6 hPa | 0 mm | - | 68 W/m² | - |
| 1777390059 | 26.11° C | 85% | 1013.7 hPa | 0 mm | - | 76 W/m² | - |
| 1777389756 | 26.11° C | 85% | 1013.7 hPa | 0 mm | - | 131 W/m² | - |
| 1777389452 | 26.11° C | 85% | 1013.4 hPa | 0 mm | - | 174 W/m² | - |
| 1777389145 | 26.11° C | 85% | 1013 hPa | 0 mm | - | 222 W/m² | - |
| 1777388843 | 25.56° C | 85% | 1013.2 hPa | 0 mm | - | 155 W/m² | - |
| 1777388539 | 25.56° C | 85% | 1013.4 hPa | 0 mm | - | 172 W/m² | - |
| 1777388235 | 25.56° C | 86% | 1013.4 hPa | 0 mm | - | 192 W/m² | - |
| 1777387930 | 25.56° C | 85% | 1013.5 hPa | 0 mm | - | 188 W/m² | - |
| 1777387627 | 25.56° C | 86% | 1013.8 hPa | 0 mm | - | 157 W/m² | - |
| 1777387324 | 25.56° C | 86% | 1013.3 hPa | 0 mm | - | 210 W/m² | - |
| 1777387022 | 25.56° C | 87% | 1013.2 hPa | 0 mm | - | 220 W/m² | - |
| 1777386719 | 25.56° C | 87% | 1013 hPa | 0 mm | - | 156 W/m² | - |
| 1777386416 | 25.56° C | 87% | 1013.1 hPa | 0 mm | - | 117 W/m² | - |
| 1777386113 | 25° C | 87% | 1013.2 hPa | 0 mm | - | 130 W/m² | - |
* Rain latest hour (hover to see other rain measurements)
** Current wind speed in m/s (hover to see current wind gust speed)